Regional Weather Roundup
Issued by NWS Huntsville, AL

Home | Current Version | Previous Version | Text Only | Print | Product List | Glossary On
Versions: 1 2 3 4 5 6 7 8 9 10 11 12 13 14 15 16 17 18 19 20 21 22 23 24 25 26 27 28 29
000
ASUS44 KHUN 301610
RWRHUN

WEATHER ROUNDUP FOR THE TENNESSEE VALLEY
NATIONAL WEATHER SERVICE HUNTSVILLE AL
1100 AM CDT THU OCT 30 2014

ALZ001>004-301700-
NORTHWEST ALABAMA

CITY           SKY/WX    TMP DP  RH WIND       PRES   REMARKS
COURTLAND HCN    N/A     55  32  41 CALM        N/A
SHOALS AIRPORT SUNNY     57  41  55 E3        30.17S
$$

ALZ005>007-016-301700-
NORTH CENTRAL ALABAMA

CITY           SKY/WX    TMP DP  RH WIND       PRES   REMARKS
CULLMAN AG STN   N/A     57 N/A N/A E5          N/A
DECATUR AP     SUNNY     59  41  51 VRB6      30.16S
HUNTSVILLE AP  SUNNY     59  41  51 VRB3      30.14F
HUN NWS/UAH      N/A     59  35  40 NE6         N/A
MERIDIANVILLE  SUNNY     57  34  41 NE6       30.14F
REDSTONE ARSN  SUNNY     58  40  50 NE6       30.14S
VINEMONT AP      N/A    N/A N/A N/A MISG        N/A
$$

ALZ008>010-301700-
NORTHEAST ALABAMA

CITY           SKY/WX    TMP DP  RH WIND       PRES   REMARKS
ALBERTVILLE    SUNNY     57  45  62 N9        30.12F
FORT PAYNE     SUNNY     55  36  47 CALM      30.12S
SCOTTSBORO AP  SUNNY     55  45  67 CALM      30.14F
SCOTTSBORO HCN   N/A     52 N/A N/A MISG        N/A
VALLEY HEAD      N/A     52 N/A N/A MISG        N/A
$$

TNZ076-096-097-301700-
SOUTHEASTERN MIDDLE TENNESSEE

CITY           SKY/WX    TMP DP  RH WIND       PRES   REMARKS
TULLAHOMA      SUNNY     54  39  58 VRB5      30.15S
WINCHESTER     SUNNY     54  41  62 N6        30.14F
$$

...SURROUNDING SITES...

CITY           SKY/WX    TMP DP  RH WIND       PRES   REMARKS
ATLANTA        MOSUNNY   62  39  42 N6        30.09S
ANNISTON       SUNNY     60  44  55 NE6       30.13F
BIRMINGHAM     SUNNY     62  42  47 N8        30.16F
CHATTANOOGA    SUNNY     60  40  47 NE6       30.12F
CORINTH        FAIR      57  43  58 VRB5      30.17S
DALTON         SUNNY     59  41  51 NW8       30.11S
GADSDEN        SUNNY     59  37  44 NE6       30.13F
GOLDEN TRNGL   NOT AVBL
HALEYVILLE     FAIR      58  39  49 CALM      30.17F
JACKSON TN     SUNNY     58  39  49 VRB3      30.17F
MEMPHIS        MOSUNNY   61  42  49 CALM      30.16F
MURFREESBORO   FAIR      55  40  57 CALM      30.16S
NASHVILLE      MOSUNNY   55  37  50 CALM      30.17F
OXFORD MS      FAIR      59  39  47 CALM      30.17F
ROME           SUNNY     58  43  57 NE3       30.11F
SAVANNAH       SUNNY     55  45  67 CALM      30.17F
TUPELO         SUNNY     59  44  57 VRB3      30.16F
TUSCALOOSA     SUNNY     63  44  50 N6        30.16S
$$

...GULF COAST WEATHER...

CITY           SKY/WX    TMP DP  RH WIND       PRES   REMARKS
GULFPORT       SUNNY     69  44  40 NE10G21   30.11S
PASCAGOULA     SUNNY     69  42  37 N14G20    30.11S
MOBILE         SUNNY     67  42  40 N16G23    30.12S
GULF SHORES    SUNNY     68  45  44 NE9       30.09S
PENSACOLA      SUNNY     69  44  40 NE17      30.08S
DESTIN         SUNNY     69  45  41 N13G18    30.07S
PANAMA CITY    MOSUNNY   66  52  60 NE9       30.04F
APPALACHICOLA  CLOUDY    72  52  49 NE9       30.02S
$$




USA.gov is the U.S. government's official web portal to all federal, state and local government web resources and services.